Hourly Data Report for October 27, 2015

All times are specified in Local Standard Time (LST). Add 1 hour to adjust for Daylight Saving Time where and when it is observed.

KITCHENER/WATERLOO
ONTARIO

43°27'39.000" N
80°22'43.000" W
321.60 m
6144239
71368
YKF

Download Data

Hourly Data (October 2015)
Hourly Data Report for October 27, 2015
Temp Definition
°C
Dew Point Temp Definition
°C
Rel Hum Definition
%
Wind Dir Definition
10's deg

Wind Spd Definition
km/h
Visibility Definition
km
Stn Press Definition
kPa
Hmdx Definition


Wind Chill Definition


Weather Definition


TIME
00:00 Legend Double Dagger 1.1 0.8 98   0 16.1 99.27     LegendNANA
01:00 Legend Double Dagger 1.1 1.0 99   0 16.1 99.27     LegendNANA
02:00 Legend Double Dagger 0.8 0.7 99 35 4 11.3 99.26     LegendNANA
03:00 Legend Double Dagger 1.8 1.5 98   0 16.1 99.23     LegendNANA
04:00 Legend Double Dagger 1.7 1.4 98 5 8 16.1 99.21     LegendNANA
05:00 Legend Double Dagger 0.9 0.6 98 LegendMM 4 16.1 99.25     LegendNANA
06:00 Legend Double Dagger 0.0 -0.1 99 35 5 14.5 99.29   -2 LegendNANA
07:00 Legend Double Dagger 0.6 0.1 96 6 9 16.1 99.29     LegendNANA
08:00 Legend Double Dagger 3.1 2.2 94 6 9 16.1 99.31     LegendNANA
09:00 Legend Double Dagger 6.5 4.0 84 8 11 16.1 99.36     LegendNANA
10:00 Legend Double Dagger 8.5 3.5 71 8 18 16.1 99.36     LegendNANA
11:00 Legend Double Dagger 9.5 2.9 63 8 21 16.1 99.33     LegendNANA
12:00 Legend Double Dagger 10.6 4.5 66 10 22 16.1 99.24     LegendNANA
13:00 Legend Double Dagger 10.7 4.2 64 10 21 16.1 99.15     LegendNANA
14:00 Legend Double Dagger 10.8 4.1 63 8 24 16.1 99.07     LegendNANA
15:00 Legend Double Dagger 9.5 2.6 62 8 24 16.1 98.98     LegendNANA
16:00 Legend Double Dagger 8.6 2.4 65 9 24 16.1 98.90     LegendNANA
17:00 Legend Double Dagger 7.1 1.8 69 8 22 16.1 98.84     LegendNANA
18:00 Legend Double Dagger 5.9 1.6 74 8 18 16.1 98.85     LegendNANA
19:00 Legend Double Dagger 6.0 2.9 81 7 26 16.1 98.81     LegendNANA
20:00 Legend Double Dagger 6.2 3.6 83 8 28 16.1 98.76     LegendNANA
21:00 Legend Double Dagger 6.7 4.4 85 8 24 16.1 98.69     LegendNANA
22:00 Legend Double Dagger 7.1 5.1 87 9 30 16.1 98.61     LegendNANA
23:00 Legend Double Dagger 7.3 5.5 88 8 24 16.1 98.53     LegendNANA

Notes on Data Quality.

Legend

  • E = Estimated
  • M = Missing
  • NA = Not Available
  • ‡ = Partner data that is not subject to review by the National Climate Archives
Date modified: